Lulea Sol, Sweden

5:07 AM CEST on September 01, 2016 (GMT +0200)
Kallax Air Base

Weather History for ESPA - May, 2014

Change the Weather History Date:

Wednesday, May 7, 2014

  Actual Average Record
Temperature  
Mean Temperature 32 °F -  
Max Temperature 41 °F - - ()
Min Temperature 24 °F - - ()
Degree Days  
Heating Degree Days 32    
Moisture  
Dew Point 22 °F    
Average Humidity 57    
Maximum Humidity 80    
Minimum Humidity 30    
Precipitation  
Precipitation 0.00 in - - ()
Sea Level Pressure  
Sea Level Pressure 30.11 in    
Wind  
Wind Speed 5 mph ()    
Max Wind Speed 9 mph    
Max Gust Speed -    
Visibility 6.2 miles    
Events      
T = Trace of Precipitation, MM = Missing Value Source: Averaged Metar Reports

Daily Weather History Graph

Daily Weather History Graph

Search for Another Location

Airport or City:

Trip Planner

Search our weather history database for the weather conditions in past years. The results will help you decide how hot, cold, wet, or windy it might be!

Date:

Astronomy

May. 07, 2014 Rise Set
Actual Time 3:30 AM CEST 9:28 PM CEST
Civil Twilight 1:57 AM CEST 11:05 PM CEST
Nautical Twilight Sun does not set Sun does not set
Astronomical Twilight Sun does not set Sun does not set
Moon 11:19 AM CEST (5/7) 2:21 AM CEST (5/7)
Length of Visible Light 21h 07m
Length of Day
17h 57m
First Quarter, 53% of the Moon is Illuminated
May 7
First Quarter
May 14
Full
May 21
Last Quarter
May 28
New
Jun 5
First Quarter

Hourly Weather History & Observations

Time (CEST) Temp. Windchill Dew Point Humidity Pressure Visibility Wind Dir Wind Speed Gust Speed Precip Events Conditions
12:00 AM 30 °F - 22 °F 63% 30.13 in 31 mi NNW 4.5 mph - -  
12:20 AM 30.2 °F 24.3 °F 21.2 °F 69% 30.12 in - NNW 5.8 mph - N/A   Clear
12:50 AM 30.2 °F 25.4 °F 21.2 °F 69% 30.12 in - North 4.6 mph - N/A   Clear
1:00 AM 30 °F - 20 °F 56% 30.13 in 31 mi NNW 4.5 mph - -  
1:20 AM 28.4 °F 22.2 °F 21.2 °F 74% 30.12 in 6.2 mi NW 5.8 mph - N/A   Unknown
1:50 AM 24.8 °F 17.9 °F 19.4 °F 80% 30.12 in 6.2 mi NW 5.8 mph - N/A   Unknown
2:00 AM 26 °F - 20 °F 68% 30.13 in 28 mi NNW 6.7 mph - -  
2:20 AM 28.4 °F 21.2 °F 21.2 °F 74% 30.12 in 6.2 mi North 6.9 mph - N/A   Unknown
2:50 AM 28.4 °F 22.2 °F 19.4 °F 69% 30.12 in 6.2 mi North 5.8 mph - N/A   Unknown
3:00 AM 27 °F - 19 °F 62% 30.13 in 31 mi North 6.7 mph - -  
3:20 AM 28.4 °F 22.2 °F 19.4 °F 69% 30.12 in 6.2 mi North 5.8 mph - N/A   Unknown
3:50 AM 24.8 °F 17.9 °F 19.4 °F 80% 30.12 in 6.2 mi North 5.8 mph - N/A   Unknown
4:00 AM 25 °F - 19 °F 68% 30.13 in 31 mi North 6.7 mph - -  
4:20 AM 24.8 °F 17.9 °F 19.4 °F 80% 30.12 in 6.2 mi North 5.8 mph - N/A   Unknown
4:50 AM 28.4 °F 22.2 °F 21.2 °F 74% 30.12 in - North 5.8 mph - N/A   Clear
5:00 AM 28 °F - 21 °F 66% 30.13 in 28 mi North 4.5 mph - -  
5:20 AM 28.4 °F 22.2 °F 21.2 °F 74% 30.12 in - North 5.8 mph - N/A   Clear
5:50 AM 30.2 °F 24.3 °F 23.0 °F 75% 30.12 in - North 5.8 mph - N/A   Clear
6:00 AM 30 °F - 22 °F 63% 30.13 in 44 mi North 6.7 mph - -   Scattered Clouds
6:20 AM 30.2 °F 25.4 °F 23.0 °F 75% 30.12 in - North 4.6 mph - N/A   Clear
6:50 AM 32.0 °F 26.4 °F 24.8 °F 75% 30.12 in - NNE 5.8 mph - N/A   Clear
7:00 AM 32 °F - 24 °F 63% 30.13 in 44 mi NNE 4.5 mph - -  
7:20 AM 32.0 °F 26.4 °F 24.8 °F 75% 30.12 in - NNE 5.8 mph - N/A   Clear
7:50 AM 33.8 °F 28.6 °F 24.8 °F 70% 30.12 in - NE 5.8 mph - N/A   Clear
8:00 AM 34 °F - 24 °F 57% 30.13 in 44 mi NNE 4.5 mph - -  
8:20 AM 33.8 °F 29.6 °F 24.8 °F 70% 30.12 in - NE 4.6 mph - N/A   Clear
8:50 AM 35.6 °F 29.9 °F 24.8 °F 65% 30.12 in 6.2 mi East 6.9 mph - N/A   Partly Cloudy
9:00 AM 36 °F - 25 °F 53% 30.13 in 47 mi East 6.7 mph - -   Scattered Clouds
9:20 AM 35.6 °F 29.9 °F 24.8 °F 65% 30.12 in 6.2 mi ENE 6.9 mph - N/A   Partly Cloudy
9:50 AM 35.6 °F 29.9 °F 24.8 °F 65% 30.12 in 6.2 mi ENE 6.9 mph - N/A   Partly Cloudy
10:00 AM 36 °F - 24 °F 50% 30.13 in 47 mi ENE 8.9 mph - -   Partly Cloudy
10:20 AM 37.4 °F 32.1 °F 24.8 °F 60% 30.12 in 6.2 mi Variable 6.9 mph - N/A   Partly Cloudy
10:50 AM 37.4 °F 31.4 °F 23.0 °F 56% 30.09 in 6.2 mi East 8.1 mph - N/A   Partly Cloudy
11:00 AM 38 °F - 23 °F 41% 30.12 in 31 mi East 8.9 mph - -   Partly Cloudy
11:20 AM 37.4 °F 32.1 °F 21.2 °F 52% 30.09 in 6.2 mi ESE 6.9 mph - N/A   Scattered Clouds
11:50 AM 39.2 °F 33.6 °F 21.2 °F 49% 30.09 in 6.2 mi ESE 8.1 mph - N/A   Scattered Clouds
12:00 PM 39 °F - 22 °F 37% 30.13 in 25 mi ESE 8.9 mph - -   Partly Cloudy
12:20 PM 39.2 °F 33.6 °F 21.2 °F 49% 30.09 in 6.2 mi ESE 8.1 mph - N/A   Partly Cloudy
12:50 PM 41.0 °F 35.8 °F 21.2 °F 45% 30.09 in 6.2 mi ESE 8.1 mph - N/A   Mostly Cloudy
1:00 PM 40 °F - 21 °F 33% 30.12 in 34 mi ESE 6.7 mph - -   Partly Cloudy
1:20 PM 39.2 °F 34.2 °F 21.2 °F 49% 30.09 in 6.2 mi SE 6.9 mph - N/A   Scattered Clouds
1:50 PM 39.2 °F 34.2 °F 21.2 °F 49% 30.09 in 6.2 mi ESE 6.9 mph - N/A   Scattered Clouds
2:00 PM 40 °F - 21 °F 33% 30.12 in 34 mi ESE 6.7 mph - -  
2:20 PM 39.2 °F 34.2 °F 21.2 °F 49% 30.12 in 6.2 mi ESE 6.9 mph - N/A   Mostly Cloudy
2:50 PM 39.2 °F 33.6 °F 21.2 °F 49% 30.12 in 6.2 mi ESE 8.1 mph - N/A   Mostly Cloudy
3:00 PM 39 °F - 21 °F 35% 30.13 in 34 mi ESE 6.7 mph - -   Partly Cloudy
3:20 PM 39.2 °F 34.2 °F 21.2 °F 49% 30.09 in 6.2 mi East 6.9 mph - N/A   Mostly Cloudy
3:50 PM 37.4 °F 32.8 °F 21.2 °F 52% 30.09 in - East 5.8 mph - N/A   Clear
4:00 PM 38 °F - 21 °F 37% 30.12 in 34 mi East 4.5 mph - -   Partly Cloudy
4:20 PM 39.2 °F 34.2 °F 21.2 °F 49% 30.09 in - ESE 6.9 mph - N/A   Clear
4:50 PM 39.2 °F 34.2 °F 21.2 °F 49% 30.09 in - SE 6.9 mph - N/A   Clear
5:00 PM 39 °F - 19 °F 30% 30.12 in 28 mi East 4.5 mph - -  
5:20 PM 39.2 °F 34.2 °F 19.4 °F 45% 30.09 in - SE 6.9 mph - N/A   Clear
5:50 PM 39.2 °F 35.0 °F 19.4 °F 45% 30.09 in - SE 5.8 mph - N/A   Clear
6:00 PM 39 °F - 20 °F 32% 30.11 in 28 mi SE 6.7 mph - -  
6:20 PM 39.2 °F 35.9 °F 19.4 °F 45% 30.09 in - SSE 4.6 mph - N/A   Clear
6:50 PM 39.2 °F 35.0 °F 19.4 °F 45% 30.09 in - East 5.8 mph - N/A   Clear
7:00 PM 39 °F - 20 °F 33% 30.11 in 28 mi ESE 6.7 mph - -  
7:20 PM 39.2 °F 35.0 °F 19.4 °F 45% 30.09 in - ESE 5.8 mph - N/A   Clear
7:50 PM 37.4 °F 34.9 °F 19.4 °F 48% 30.09 in - East 3.5 mph - N/A   Clear
8:00 PM 38 °F - 20 °F 35% 30.11 in 28 mi East 4.5 mph - -  
8:50 PM 37.4 °F 34.9 °F 21.2 °F 52% 30.09 in - East 3.5 mph - N/A   Clear
9:00 PM 36 °F - 22 °F 45% 30.11 in 28 mi East 2.2 mph - -  
9:20 PM 35.6 °F - 23.0 °F 60% 30.09 in - East 2.3 mph - N/A   Clear
9:50 PM 32.0 °F - 23.0 °F 69% 30.09 in - NE 2.3 mph - N/A   Clear
10:00 PM 31 °F - 21 °F 56% 30.11 in 31 mi NE 2.2 mph - -  
10:20 PM 28.4 °F 24.6 °F 21.2 °F 74% 30.09 in - NNE 3.5 mph - N/A   Clear
10:50 PM 30.2 °F 26.7 °F 21.2 °F 69% 30.09 in - NNE 3.5 mph - N/A   Clear
11:00 PM 29 °F - 22 °F 65% 30.11 in 31 mi NNE 4.5 mph - -  
11:20 PM 28.4 °F 23.3 °F 21.2 °F 74% 30.09 in - NNE 4.6 mph - N/A   Clear
11:50 PM 28.4 °F 24.6 °F 21.2 °F 74% 30.09 in - NNE 3.5 mph - N/A   Clear